Regional Weather Roundup
Issued by NWS Wakefield, VA

Home | Current Version | Previous Version | Graphics & Text | Print | Product List | Glossary On
Versions: 1 2 3 4 5 6 7 8 9 10 11 12 13 14 15 16 17 18 19 20 21 22 23 24 25 26 27 28
000
ASUS41 KAKQ 242310
RWRAKQ

REGIONAL WEATHER ROUNDUP
NATIONAL WEATHER SERVICE WAKEFIELD VA
700 PM EDT FRI OCT 24 2014

Note: "fair" indicates few or no clouds below 12,000 feet with no
significant weather and/or obstructions to visibility. * = Denotes
station may not report precipitation (e.g., rain,snow,etc.),
thunder or fog.

VAZ042-051-052>054-056-250000-
NORTHERN VIRGINIA

CITY           SKY/WX    TMP DP  RH WIND       PRES   REMARKS
WASH NATIONAL  MOCLDY    66  38  35 W8        29.93R
DULLES         MOCLDY    59  36  42 CALM      29.94R
FORT BELVOIR   PTCLDY    60  40  47 W3        29.93R
QUANTICO       PTCLDY    56  47  71 NW5       29.94R
FREDERICKSBRG* PTCLDY    57  49  74 W3        29.93R
STAFFORD*      PTCLDY    52  45  75 CALM      29.98R
WARRENTON      PTCLDY    54  47  76 NW5       29.93S
CULPEPER*      PTCLDY    55  43  62 CALM      29.95R
MANASSAS*      MOCLDY    61  36  39 W3        29.94R
LEESBURG*      CLOUDY    61  36  39 NW8       29.95R
WINCHESTER     MOCLDY    54  32  43 W3        29.95S
FRONT ROYAL*   PTCLDY    59  34  38 CALM      29.94S
LURAY*         PTCLDY    55  37  50 CALM      29.96S
$$

VAZ048-049-060>072-079>083-250000-
CENTRAL AND SOUTH CENTRAL VIRGINIA...AND NORTH CENTRAL NORTH CAROLINA

CITY           SKY/WX    TMP DP  RH WIND       PRES   REMARKS
RICHMOND       MOCLDY    58  44  60 CALM      29.94R
CHESTERFIELD*    N/A    N/A N/A N/A MISG        N/A
PETERSBURG*    LGT RAIN  50  48  93 CALM      29.95S
HANOVER        PTCLDY    54  48  80 CALM      29.95R
TAPPAHANNOCK*  PTCLDY    53  43  68 CALM      29.94R
CHARLOTTSVILLE PTCLDY    63  40  42 CALM      29.94R
ORANGE*        PTCLDY    54  45  71 CALM      29.96R
LOUISA*        PTCLDY    50  46  87 CALM      29.93S
FARMVILLE*     MOCLDY    59  45  58 CALM      29.94R
CREWE*         MOCLDY    55  49  80 CALM      29.95R
FORT PICKETT*  MOCLDY    55  48  77 CALM      29.95R
LUNENBURG*     MOCLDY    58  53  86 CALM      29.96R
SOUTH HILL*    MOCLDY    57  55  94 CALM      30.01R
LAWRENCEVILLE* MOCLDY    56  52  85 CALM      29.95R
ROANOKE RAPIDS MOCLDY    55  50  82 CALM      29.95S
RALEIGH        MOCLDY    58  48  69 W3        29.98R
$$

VAZ088>098-250000-
SOUTHEAST VIRGINIA

CITY           SKY/WX    TMP DP  RH WIND       PRES   REMARKS
NORFOLK        CLEAR     63  44  50 CALM      29.92R
VIRGINIA BEACH PTCLDY    62  44  51 W6        29.91S
NORFOLK NAVAL  PTCLDY    65  46  50 W6        29.94R
WEST POINT*    CLEAR     55  44  65 CALM      29.94S
NEWPORT NEWS   CLEAR     62  45  53 W3        29.93R
LANGLEY AFB    PTCLDY    57  45  64 W6        29.93R
FORT EUSTIS    PTCLDY    60  44  57 W3        29.92R
WILLIAMSBURG*  PTCLDY    57  50  77 CALM      29.94R
HR EXEC AP*    CLEAR     48  45  87 W3        29.95S
FRANKLIN*      PTCLDY    55  48  76 CALM      29.95R
WAKEFIELD      PTCLDY    54  50  86 CALM      29.94S
$$

VAZ020-022-025-037-045-250000-
WEST CENTRAL AND SOUTHWEST VIRGINIA

CITY           SKY/WX    TMP DP  RH WIND       PRES   REMARKS
STAUNTON*      PTCLDY    56  41  56 CALM      29.98R
HOT SPRINGS VA MOCLDY    51  35  52 W6        30.00S
LYNCHBURG      PTCLDY    52  44  74 CALM      29.98R
DANVILLE       MOCLDY    54  49  83 CALM      29.97S
SOUTH BOSTON*  NOT AVBL
MARTINSVILLE   PTCLDY    55  50  83 CALM      30.00S
ROANOKE        PTCLDY    60  38  43 CALM      30.00R
BLACKSBURG     CLEAR     55  37  50 W3        30.04R
DUBLIN*        CLEAR     56  35  44 NW3       30.04R
MARION*        CLEAR     56  36  45 W8        30.07R
HILLSVILLE*    CLEAR     57  33  39 NW7       30.03R
RICHLANDS*     CLEAR     57   9  14 NW6       30.07R
WISE*          CLEAR     52  37  58 CALM      30.09R
ABINGDON*      CLEAR     55  39  55 CALM      30.06R
$$

MDZ021>025-VAZ099-100-250000-
SOUTHERN MARYLAND AND THE DELMARVA PENINSULA

CITY           SKY/WX    TMP DP  RH WIND       PRES   REMARKS
PATUXENT RIVER MOCLDY    58  41  53 W9        29.91R
BAY BRIDGE APT   N/A     61  41  48 W7        29.90R
LEONARDTOWN    CLEAR     57  41  54 W3        29.93R
DOVER          MOCLDY    61  44  53 W5        29.85R
GEORGETOWN     PTCLDY    61  45  55 W5        29.89R
EASTON         NOT AVBL
CAMBRIDGE      PTCLDY    59  43  55 W5        29.90R
SALISBURY      CLEAR     58  46  64 SW6       29.89R
OCEAN CITY     CLEAR     58  46  64 W6        29.88R
WALLOPS ISLAND CLEAR     60  46  59 NW8       29.91R
ACCOMACK*      CLEAR     57  45  62 NW6       29.91S
$$

NCZ012>017-030>032-250000-
EASTERN NORTH CAROLINA

CITY           SKY/WX    TMP DP  RH WIND       PRES   REMARKS
ELIZABETH CITY PTCLDY    59  47  64 SW6       29.94R
AHOSKIE*       MOCLDY    56  49  77 CALM      29.96R
EDENTON*       PTCLDY    60  51  71 CALM      29.94S
CURRITUCK*     PTCLDY    60  48  65 W5        29.94R
KILL DEVIL HLS PTCLDY    60  53  78 NW3       29.92R
MANTEO         PTCLDY    61  52  71 W5        29.93R
CAPE HATTERAS  CLEAR     61  53  75 W6        29.94R
TARBORO*       PTCLDY    56  52  86 CALM      29.96S
GOLDSBORO      MOCLDY    62  54  76 SW2       29.95R
WASHINGTON     PTCLDY    58  52  80 CALM      29.96R
GREENVILLE     PTCLDY    55  52  88 CALM      29.98R
NEW BERN       PTCLDY    60  52  74 CALM      29.96S
WILMINGTON     CLEAR     61  52  72 S5        29.97R
$$

VAZ048-250000-
ELSEWHERE

CITY           SKY/WX    TMP DP  RH WIND       PRES   REMARKS
HARRISBURG PA  CLOUDY    58  40  51 NW8       29.88R
BALTIMORE      MOCLDY    60  35  39 NW3       29.90R
ANNAPOLIS      PTCLDY    62  37  39 W6        29.90R
ANDREWS AFB    PTCLDY    60  40  47 W10       29.91R
WILMINGTON DE  MOCLDY    61  38  42 W7        29.86R
PHILADELPHIA   MOCLDY    65  43  44 W12       29.84R
WILDWOOD NJ*   PTCLDY    63  46  55 W9        29.86R
ATLANTIC CITY  MOCLDY    61  47  59 SW7       29.83R
HENDERSON NC   PTCLDY    57  50  77 CALM      29.97S HAZE
GREENSBORO     MOCLDY    61  41  47 SW3       29.97S
ROCKY MOUNT    PTCLDY    54  51  90 CALM      29.97R
FAYETTEVILLE   PTCLDY    62  49  62 NW3       29.97R
CHARLOTTE      CLOUDY    61  46  57 W3        29.99S
$$

VAZ100-250000-
MARINE

STATION/POSITION TIME  TEMP    WIND        PRES    WAVE   SWELL
                       AIR SEA DIR/SP/G            HT/PER HT/PER
                 (UTC) (F)     (DEG/KT/KT) (MB)    (FT/S) (FT/S)
44066 TX TWR #4  2300   60 65  330/ 17/ 21 1008.5R   5/ 6   2/ 9
CAPE MAY NJ      2300   62 63  300/ 11/ 13 1010.4R
LEWES DE         2300   62 58  260/  6/  7 1010.9R
15NM E FENWICK I 2300   65 64  280/ 12/ 16 1010.9R   4/ 7   3/ 7
OCEAN-CITY-INLET 2300   61 62  290/  8/ 11 1011.3R
WACHAPREAGUE VA  2300   59 61   CALM  /  3 1012.8S
THOMAS POINT MD  2300   63 63  280/  6/  7 1013.6R
GOOSES REEF MD   2300   64     300/ 10/ 10 1012.9R
COVE POINT MD    2300   62     300/  6/  7 1012.5R
SOLOMONS ISLAND  2300      64                N/A
BISHOPS HEAD MD  2300   62 59  270/  9/  9 1012.2R
PINEY POINT MD   2300          310/ 10/ 10   N/A
POTOMAC MD       2300   64     290/ 12/ 14 1012.1R
CAMBRIDGE MD     2300   62 60  260/  5/  7 1012.1R
LEWISETTA VA     2300   62 60  280/  8/ 10 1012.7R
RAPPAHANNOCK LGT 2300          290/  9/ 10 1013.4R
STINGRAY PT      2300   65     310/ 10/ 12 1013.5S
YORK RVR RNG VA  2300   64     290/  8/ 10 1012.7R
YORKTOWN VA      2300   62 64  260/  7/  8 1012.9R
JAMESTOWN VA     2300   61     270/  6/  6   N/A
DOMINION TERM VA 2300   64     290/  8/  9 1013.2S
KIPTOPEKE VA     2300      66  310/ 10/ 12   N/A
CHES BAY BRIDGE  2300   65 65  270/ 12/ 15 1012.5S
CHESAPEAKE LGHT  2200   64     300/ 13/ 14 1013.5R
WILLOUBY STN VA  2300   64     300/  8/  9 1011.9S
S CRANEY ISL VA  2300          240/  4/  6 1013.0S
CAPE HENRY BUOY  2300      67                N/A     3/ 7
1ST LANDING BUOY 2300   66     290/ 14/ 16 1012.7S
CAPE CHARLES BUO 2300      66                N/A     3/ 7   2/ 7
64NM E OF VA BCH 2300   64 67  320/ 17/ 19 1012.1R   5/ 9   3/ 9
DUCK PIER NC     2300   63 66  260/  4/  5 1012.6R
44100 DUCK FRF   2300      67                N/A     4/ 7   2/11
44056 DUCK FRF   2300                        N/A     3/ 6   2/11
OREGON INLET NC  2300   62 64  280/  5/  7 1013.2S
HATTERAS NC      2300   65 65  290/ 10/ 12 1014.0S
DIAMOND SHLS NC  2300   65     300/ 14/ 17 1013.7R   4/ 9   2/ 9
CAPE LOOKOUT NC  2200   66     270/  7/  8 1014.1R
$$



USA.gov is the U.S. government's official web portal to all federal, state and local government web resources and services.